Rancho El Gorguz, Mexico

3:49 AM MST on December 06, 2016 (GMT -0700)
Gen Ignacio Pesqueira Garcia

Weather History for MMHO - June, 2013

Change the Weather History Date:

Thursday, June 20, 2013

  Actual Average Record
Temperature  
Mean Temperature 92 °F -  
Max Temperature 110 °F 103 °F 113 °F (2007)
Min Temperature 75 °F 76 °F 73 °F (2003)
Cooling Degree Days 28    
Growing Degree Days 42 (Base 50)    
Moisture  
Dew Point 55 °F    
Average Humidity 30    
Maximum Humidity 53    
Minimum Humidity 15    
Precipitation  
Precipitation 0.00 in - - ()
Sea Level Pressure  
Sea Level Pressure 29.76 in    
Wind  
Wind Speed 5 mph ()    
Max Wind Speed 17 mph    
Max Gust Speed 22 mph    
Visibility 9.8 miles    
Events      
Averages and records for this station are not official NWS values.
T = Trace of Precipitation, MM = Missing Value Source: Averaged Metar Reports

Daily Weather History Graph

Daily Weather History Graph

Search for Another Location

Airport or City:

Trip Planner

Search our weather history database for the weather conditions in past years. The results will help you decide how hot, cold, wet, or windy it might be!

Date:

Astronomy

Jun. 20, 2013 Rise Set
Actual Time 6:25 AM MDT 8:26 PM MDT
Civil Twilight 5:58 AM MDT 8:53 PM MDT
Nautical Twilight 5:25 AM MDT 9:26 PM MDT
Astronomical Twilight 4:50 AM MDT 10:01 PM MDT
Moon 5:39 PM MDT (6/20) 3:45 AM MDT (6/20)
Length of Visible Light 14h 54m
Length of Day
14h 00m
Waxing Gibbous, 89% of the Moon is Illuminated
Jun 20
Waxing Gibbous
Jun 23
Full
Jun 29
Last Quarter
Jul 8
New
Jul 15
First Quarter

Hourly Weather History & Observations

Time (MDT) Temp. Heat Index Dew Point Humidity Pressure Visibility Wind Dir Wind Speed Gust Speed Precip Events Conditions
12:42 AM 82.4 °F - 46.4 °F 28% 29.77 in 10.0 mi NNW 4.6 mph - N/A   Clear
1:41 AM 80.6 °F 80.8 °F 57.2 °F 45% 29.76 in 10.0 mi NW 4.6 mph - N/A   Clear
2:42 AM 75.2 °F - 57.2 °F 53% 29.70 in 10.0 mi Calm Calm - N/A   Clear
3:42 AM 77.0 °F - 57.2 °F 50% 29.76 in 10.0 mi Calm Calm - N/A   Clear
4:43 AM 80.6 °F 80.3 °F 53.6 °F 39% 29.76 in 10.0 mi Calm Calm - N/A   Clear
5:47 AM 77.0 °F - 51.8 °F 41% 29.73 in 10.0 mi Calm Calm - N/A   Clear
6:40 AM 80.6 °F - 51.8 °F 37% 29.79 in 10.0 mi East 4.6 mph - N/A   Clear
7:42 AM 84.2 °F - 48.2 °F 29% 29.81 in 10.0 mi ENE 4.6 mph - N/A   Clear
8:35 AM 84 °F - 56 °F 28% 29.80 in 7 mi NNE 2.2 mph - -  
8:41 AM 86.0 °F 84.5 °F 55.4 °F 35% 29.78 in 10.0 mi ENE 5.8 mph - N/A   Clear
9:43 AM 91.4 °F 89.9 °F 57.2 °F 31% 29.84 in 10.0 mi East 5.8 mph - N/A   Clear
10:40 AM 95.0 °F 94.4 °F 59.0 °F 30% 29.83 in 10.0 mi East 5.8 mph - N/A   Clear
11:53 AM 98.6 °F 99.4 °F 60.8 °F 29% 29.77 in 10.0 mi ESE 9.2 mph - N/A   Clear
12:45 PM 102.2 °F 101.4 °F 57.2 °F 22% 29.81 in 10.0 mi SE 5.8 mph - N/A   Clear
1:41 PM 104.0 °F 103.4 °F 57.2 °F 21% 29.80 in 10.0 mi SSE 9.2 mph - N/A   Clear
2:45 PM 105.8 °F 104.9 °F 55.4 °F 19% 29.72 in 10.0 mi SSW 15.0 mph - N/A   Clear
3:44 PM 105.8 °F - 50.0 °F 15% 29.76 in 10.0 mi SSW 10.4 mph 21.9 mph N/A   Clear
4:46 PM 107.6 °F - 51.8 °F 16% 29.74 in 10.0 mi South 17.3 mph - N/A   Clear
5:35 PM 105 °F - 61 °F 15% 29.66 in 7 mi SW 2.2 mph - -  
6:03 PM 104.0 °F 102.9 °F 55.4 °F 20% 29.70 in 10.0 mi SSW 17.3 mph - N/A   Clear
6:49 PM 102.2 °F 100.9 °F 55.4 °F 21% 29.73 in 10.0 mi SW 15.0 mph - N/A   Clear
7:45 PM 100.4 °F - 48.2 °F 17% 29.74 in 10.0 mi SSW 11.5 mph - N/A   Clear
8:45 PM 96.8 °F - 48.2 °F 19% 29.73 in 10.0 mi SW 9.2 mph - N/A   Clear
9:44 PM 89.6 °F 88.1 °F 57.2 °F 33% 29.78 in 10.0 mi SW 5.8 mph - N/A   Clear
10:42 PM 86.0 °F 86.1 °F 60.8 °F 43% 29.80 in 10.0 mi WSW 3.5 mph - N/A   Clear
11:41 PM 84.2 °F 85.6 °F 64.4 °F 51% 29.77 in 10.0 mi Calm Calm - N/A   Clear